Accueil
METAR-TAF:

METAR-TAF

Aéroports :

Meiringen, Suisse

latitude: 46-44-25N, longitude: 8-06-36E, altitude: 577 m

Observation

Le bulletin a été fait il y a 17 minutes, à 21:50 UTC
Vent 2 kt de direction variable
Température 4°C
Humidité 93%
Pression 1015 hPa
Visibilité 10 km ou plus
Ciel couvert à une hauteur de 10000 ft

METAR: LSMM 242150Z AUTO VRB02KT 9999NDV OVC100 04/03 Q1015 RMK

Heure: 23:07 (22:07 UTC)


TAF: absent

Observations et prévisions météorologiques de plus de 4000 aéroports (messages METAR et TAF).

Les stations disponibles sont représentées par des disques jaunes et rouges sur la carte.

Passer la souris dessus pour voir le nom de la station.

Cliquer dessus pour voir les observations et prévisions météorologiques.

Pour changer de carte: cliquez sur les boutons verts avec une croix noire pour zoomer, sur le bouton vert avec un tiret pour effectuer un zoom arrière, ou sur les flèches vertes pour les cartes adjacentes.


METAR-TAF: